sat.trackr.live / text

‹ back to catalog

STARLINK-32085

NORAD 59685 · 2024-086D

PAYLOAD ACTIVE UNKNOWN

§ Identity

Operator
Country
US
Launch date
2024-05-08
Launch site
AFETR
Launch vehicle
Mass (kg)
RCS (m²)

Purposes: comms

External: N2YO · Heavens-Above · Gunter

§ Orbital elements

Epoch: 2026-09-21T15:56:07.783872Z

Period
94.26 min
Inclination
43.0031°
Eccentricity
0.0001208
Mean motion
15.27650218 rev/d
Perigee alt
482.0 km
Apogee alt
483.7 km
Semi-major
6,861.0 km
B*
3.7668e-4
RAAN
33.1585°
Arg perigee
264.0436°
Mean anomaly
96.0278°
Rev number
13,408

§ Raw data

STARLINK-320851 59685U 24086D   26264.66397898  .00010139  00000+0  37668-3 0  99952 59685  43.0031  33.1585 0001208 264.0436  96.0278 15.27650218134082

JSON: /api/v1/satellites/59685 · /tle

For live sub-satellite position, see the globe view (requires WebGL).

§ Visibility from observer

Set your observer location to see the next 7 days of passes ≥ 10°. The values pass through the URL so the page stays shareable.

No JS? Fill the form by hand. The geolocation button needs JavaScript.